星链-35182 (STARLINK-35182)

导读

STARLINK-35182是美国于2025年9月5日发射的星链卫星,隶属于SpaceX公司的星链互联网星座项目。星链计划旨在通过近地轨道卫星群搭建全球卫星互联网系统,为全球提供高速低延迟的宽带网络服务,覆盖偏远缺网地区,补充地面通信网络覆盖盲区,该卫星的发射进一步扩充了星链星座的在轨卫星规模。

基本信息
目录编号:
65504
目录名称:
STARLINK-35182
国际标识:
2025-198N
轨道中心:
EARTH
卫星名称:
星链-35182
卫星全名:
星链-35182 (STARLINK-35182)
卫星状态:
在轨 (已飞行364 天)
发射日期:
2025-09-05 UTC
国别 :
美国 (US)
星等 :
--
轨道信息
数据来源 国际轨道数据
星历时间: 2026-09-03T13:31:09+0800
1天前
查看轨道信息
半长轴: 6840.824km
偏心率: 0.0001419
轨道倾角: 53.157°
近地点辐角 101.031°
升交点赤经 162.698°
平近点角 259.085°
近地点: 461.716km
远地点: 463.658km
周期: 93.847分钟
每日圈数: 15.344058
详细信息
固有亮度:
5
最大亮度:
2.5
卫星平台:
Starlink V1.0
覆盖范围:
全球
运营商:
太空探索技术公司
运营商所在国:
美国
制造商(研发单位):
太空探索技术公司
制造商所在国:
美国
使用方式:
暂无
卫星简介
Starlink 计划是 SpaceX 推出的全球卫星互联网项目,通过发射低轨道卫星,为全球尤其是偏远地区提供高速、低延迟的互联网服务。自 2019 年起,Starlink 已部署数千颗卫星,旨在缩小全球数字鸿沟,推动互联网普及。该项目还为军事、航空等行业提供通信支持,带来广泛经济效益。
2D轨道图
3D轨道图
轨道高度分析图
轨道倾角分析图
轨道综合分析图
查看轨道综合分析图
交会数据列表
事件ID 空间交会对象 最接近时刻(TCA) 交会距离 交会风险概率(CRP) 交会风险指数(CRI) 操作
CDM_260904-021906-460406-550421
2026-09-04T
02:19:30+0000
0.394 km
远距离
2.203575E-4 高风险 0.82
CDM_260904-092106-460406-550421
2026-09-04T
09:21:35+0000
0.568 km
远距离
9.259794E-5 中风险 0.74
CDM_260904-155206-263406-550421
2026-09-04T
15:52:47+0000
1.951 km
极远距离
3.046573E-6 低风险 0.45
CDM_260903-131405-198606-550421
2026-09-03T
13:14:30+0000
2.998 km
极远距离
1.18387E-6 低风险 0.36
CDM_260906-000805-339806-550421
2026-09-06T
00:08:40+0000
2.868 km
极远距离
1.170068E-6 低风险 0.36
CDM_260904-152405-081706-550421
2026-09-04T
15:24:10+0000
2.904 km
极远距离
9.710853E-7 极低风险 0.35
CDM_260905-171604-944506-550421
2026-09-05T
17:16:17+0000
2.802 km
极远距离
6.273874E-7 极低风险 0.31